Zurück zum Katalog

STRELA 3

AktivMilitärPO
NORAD 37153·PAYLOAD·🇷🇺 Russia

Gestartet Sep 8, 2010 von Plesetsk Cosmodrome

Loading…

Nächste Überflüge (nächste 24 Stunden)

TLE

AktuellSource: Space-Track

Epoche: Sep 14, 2026, 13:41 UTC

1 37153U 10043B   26257.57019412 -.00000037  00000-0 -34980-3 0  9997
2 37153  82.4617  22.7216 0006802 245.5108 114.5262 12.40793679725452

Verfolge STRELA 3 in Echtzeit mit AllMySat

Download on the App Store